Location: Austin
(30.3000°N, 97.7500°W)
Time: 22:30:46
(UTC-05:00)

Cosmos 2082 Rocket - Pass Details

Date: 16 March 2026
Orbit: 831 x 854 km, 71.0° (Epoch: 20 April)

Event Time Altitude Azimuth Distance (km) Brightness Sun altitude
Rises 20:46:12 0° 324° (NW) 3,423 6.0 -15.1°
Reaches altitude 10° 20:49:03 10° 312° (NW) 2,483 5.5 -15.7°
Maximum altitude 20:53:36 25° 259° (WSW) 1,646 4.5 -16.7°
Drops below altitude 10° 20:58:08 10° 205° (SSW) 2,465 4.8 -17.6°
Sets 21:00:58 0° 192° (SSW) 3,393 5.4 -18.2°
